Regional Weather Roundup
Issued by NWS Kansas City/Pleasant Hill, MO

Home | Current Version | Previous Version | Text Only | Print | Product List | Glossary On
Versions: 1 2 3 4 5 6 7 8 9 10 11 12 13 14 15 16 17 18 19 20 21 22 23 24 25 26 27 28 29 30 31 32 33 34 35 36 37 38 39 40 41 42 43 44 45 46 47 48 49 50
000
ASUS43 KEAX 010010
RWREAX

WEATHER ROUNDUP FOR EASTERN KANSAS AND NORTHWEST MISSOURI
NATIONAL WEATHER SERVICE KANSAS CITY/PLEASANT HILL MO
700 PM CDT FRI JUL 31 2015

KSZ040-057-103>105-MOZ028-029-037-043-010100-
...KANSAS CITY METROPOLITAN AREA...

CITY           SKY/WX    TMP DP  RH WIND       PRES   REMARKS
K.C. INTL      MOSUNNY   86  69  56 SW3       30.05F HX  90
6HR MIN TEMP:  84; 6HR MAX TEMP:  89;

K.C. DOWNTOWN  SUNNY     88  67  49 NW6       30.03F HX  91
6HR MIN TEMP:  87; 6HR MAX TEMP:  91;

LEES SUMMIT    SUNNY     89  65  44 NW3       30.06S HX  91
6HR MIN TEMP:  86; 6HR MAX TEMP:  91;

OLATHE - IXD   SUNNY     87  66  49 NW7       30.07S
6HR MIN TEMP:  87; 6HR MAX TEMP:  89;

OLATHE - OJC   SUNNY     87  64  46 W6        30.06S
6HR MIN TEMP:  85; 6HR MAX TEMP:  89;

LAWRENCE       SUNNY     89  67  47 CALM      30.05S HX  92

$$

MOZ001>008-011>017-020>025-030>033-038>040-044>046-053-054-010100-
...NORTHERN AND CENTRAL MISSOURI...

CITY           SKY/WX    TMP DP  RH WIND       PRES   REMARKS
ST. JOSEPH     MOSUNNY   88  73  61 CALM      30.04S HX  95
6HR MIN TEMP:  85; 6HR MAX TEMP:  90;

MOSBY          CLEAR     88  64  45 CALM      30.04S
WARRENSBURG    SUNNY     88  61  40 SW3       30.04S
WHITEMAN AFB   SUNNY     90  59  36 W6        30.04S
6HR MIN TEMP:  88; 6HR MAX TEMP:  92;

CLINTON        SUNNY     90  64  43 CALM      30.05F HX  91
SEDALIA        SUNNY     88  63  43 NW5       30.06F
6HR MIN TEMP:  88; 6HR MAX TEMP:  92;

WARSAW         NOT AVBL
CHILLICOTHE      N/A     88  73  61 CALM      30.05R HX  95
6HR MIN TEMP:  86; 6HR MAX TEMP:  91;

KIRKSVILLE     PTSUNNY   83  72  69 CALM      30.05S
6HR MIN TEMP:  83; 6HR MAX TEMP:  88;


$$

MOZ041-047>049-056>058-063>065-088>090-097-010100-
...EASTERN AND SOUTHERN MISSOURI...

CITY           SKY/WX    TMP DP  RH WIND       PRES   REMARKS
ST. LOUIS INTL MOSUNNY   89  62  40 N7        30.01F
6HR MIN TEMP:  89; 6HR MAX TEMP:  94;

SPIRIT OF STL  MOSUNNY   88  70  55 SW5       30.00F HX  93
COLUMBIA       SUNNY     87  66  49 NW6       30.04F
JEFFERSON CITY SUNNY     89  61  38 W5        30.02F
ROLLA          SUNNY     85  63  47 SW6       30.05F
OSAGE BEACH    SUNNY     86  66  51 CALM      30.05F
SPRINGFIELD    SUNNY     87  54  32 W6        30.08F
BRANSON        MOSUNNY   86  59  39 CALM      30.09F
JOPLIN         SUNNY     88  61  40 S9        30.06F
WEST PLAINS    SUNNY     86  62  44 W5        30.09F

$$

IAZ060-094-KSZ022-034>040-054-083-096-NEZ052-066-093-010100-
...KANSAS...SOUTHEAST NEBRASKA AND IOWA...

CITY           SKY/WX    TMP DP  RH WIND       PRES   REMARKS
TOPEKA         SUNNY     90  67  46 E3        30.05S HX  93
6HR MIN TEMP:  86; 6HR MAX TEMP:  91;

MANHATTAN      SUNNY     90  70  51 SE6       30.04F HX  95
EMPORIA        SUNNY     89  67  47 SE5       30.06F HX  92
CHANUTE        SUNNY     89  71  55 S6        30.06S HX  95
WICHITA        MOSUNNY   89  69  51 S8        30.06F HX  93
OMAHA          CLOUDY    85  77  77 N5        30.02F HX  95
LINCOLN        CLOUDY    85  66  53 NE9       30.02F
FALLS CITY     MOSUNNY   88  74  63 CALM      30.03S HX  96
LAMONI         CLOUDY    76  63  64 W7        30.05S
DES MOINES     MOSUNNY   86  59  39 E5        30.03S

$$



USA.gov is the U.S. government's official web portal to all federal, state and local government web resources and services.